Flag for U.S.A. Weather past 2 weeks in Chico, California, U.S.A.

Now
57 °F

Passing clouds.


Feels Like: 56 °F
Forecast: 47 / 63 °F
Wind: 6 mph from North

Location: Chico Municipal

Current Time: Feb 1, 2015 at 6:25:18 PM

Latest Report: Feb 1, 2015 at 5:59 PM


Visibility: 10 mi

Pressure: 30.16 "Hg

Humidity: 67%

Dew point: 46 °F

Location of ChicoLocation

Historic Weather in Chico — Graph

°F

Chico temperature yesterday

Maximum temperature yesterday: 72 °F (at 1:49 PM)
Minimum temperature yesterday: 41 °F (at 4:15 AM)
Average temperature yesterday: 52 °F

Past Weeks' High & Low Weather Summary

 TemperatureHumidityPressure
High75 °F (Jan 24, 2:47 PM)100% (Jan 17, 5:55 PM)30.40 "Hg (Jan 17, 5:55 PM)
Low34 °F (Jan 25, 7:51 AM)23% (Jan 31, 1:49 PM)29.89 "Hg (Jan 30, 3:48 PM)
Average50 °F81%30.17 "Hg
* Reported Jan 17 4:50 PM — Feb 1 4:47 PM, Chico, Weather by CustomWeather, © 2014

Note: Actual official high and low records may vary slightly from our data, if they occured in-between our weather recording intervals... More about our weather records

Advertising

Chico weather history for previous 24 hours

 ConditionsComfort  
Time TempWeatherWind HumidityBarometerVisibility
4:47 PM
Feb 1
61 °FPartly sunny.9 mph63%30.15 "Hg10 mi
3:48 PM63 °FBroken clouds.No wind52%30.15 "Hg10 mi
2:49 PM63 °FBroken clouds.6 mph56%30.14 "Hg10 mi
1:56 PM61 °FPartly sunny.9 mph55%30.16 "Hg10 mi
1:25 PM61 °FPartly sunny.9 mph59%N/A10 mi
12:49 PM59 °FMostly cloudy.No wind59%30.19 "Hg10 mi
11:47 AM57 °FMostly cloudy.6 mph55%30.20 "Hg10 mi
10:55 AM54 °FMostly cloudy.6 mph63%30.22 "Hg10 mi
9:50 AM52 °FMostly cloudy.No wind58%30.20 "Hg10 mi
8:58 AM46 °FMostly cloudy.No wind66%30.19 "Hg25 mi
6:49 AM45 °FMostly cloudy.7 mph61%30.16 "Hg25 mi
5:35 AM45 °FClear.3 mph61%30.13 "Hg10 mi
5:15 AM46 °FClear.No wind57%30.12 "Hg10 mi
4:55 AM45 °FClear.No wind61%30.12 "Hg10 mi
4:35 AM45 °FClear.No wind71%30.11 "Hg10 mi
4:15 AM45 °FClear.No wind71%30.11 "Hg10 mi
3:55 AM45 °FClear.No wind71%30.11 "Hg10 mi
3:35 AM46 °FClear.No wind71%30.10 "Hg10 mi
3:15 AM50 °FClear.5 mph62%30.09 "Hg10 mi
2:55 AM48 °FClear.No wind58%30.09 "Hg10 mi
2:35 AM48 °FClear.6 mph58%30.09 "Hg10 mi
2:15 AM48 °FClear.6 mph62%30.08 "Hg10 mi
1:55 AM54 °FClear.9 mph54%30.07 "Hg10 mi
1:35 AM55 °FClear.9 mph51%30.06 "Hg10 mi
1:15 AM54 °FClear.12 mph54%30.06 "Hg10 mi
12:55 AM50 °FClear.6 mph58%30.07 "Hg10 mi
12:35 AM48 °FClear.No wind66%30.07 "Hg10 mi
12:15 AM48 °FClear.5 mph62%30.07 "Hg10 mi
11:55 PM
Jan 31
50 °FClear.3 mph58%30.07 "Hg10 mi
11:35 PM50 °FClear.No wind58%30.06 "Hg10 mi
11:15 PM50 °FClear.7 mph58%30.06 "Hg10 mi
10:55 PM52 °FClear.7 mph58%30.06 "Hg10 mi
10:35 PM48 °FClear.12 mph62%30.04 "Hg10 mi
10:15 PM50 °FClear.No wind54%30.04 "Hg10 mi
9:55 PM46 °FClear.6 mph66%30.03 "Hg10 mi
9:35 PM48 °FClear.No wind66%30.02 "Hg10 mi
9:15 PM46 °FClear.No wind71%30.01 "Hg10 mi
8:55 PM52 °FClear.No wind54%30.00 "Hg10 mi
8:35 PM54 °FClear.No wind54%30.00 "Hg10 mi
8:15 PM52 °FClear.No wind58%30.00 "Hg10 mi
7:55 PM50 °FClear.No wind62%29.99 "Hg10 mi
7:15 PM55 °FClear.No wind51%29.98 "Hg10 mi
6:55 PM59 °FClear.7 mph45%29.98 "Hg10 mi
6:35 PM59 °FClear.7 mph48%29.98 "Hg10 mi
6:15 PM61 °FClear.5 mph45%29.98 "Hg10 mi
Weather by CustomWeather, © 2014

See weather overviewHow to use our weather pages